• In Russia
  • List of Countries
  • For 7 days
  • Water Temperature
  • Satellite Maps
  • Weather Map
  • Weather Widgets
  • user-avatar
    Login

    Hourly Weather Swansea

    Today, 17 December, Sunday

    Time Temperature Precipitation Wind Pressure Humidity
    00:00 +4°C° 0 mm 3 mps 766 mmHg 92%
    01:00 +4°C° 0 mm 3 mps 766 mmHg 92%
    02:00 +4°C° 0 mm 3 mps 766 mmHg 92%
    03:00 +5°C° 0 mm 3 mps 766 mmHg 93%
    04:00 +5°C° 0 mm 3 mps 766 mmHg 93%
    05:00 +5°C° 0 mm 3 mps 766 mmHg 93%
    06:00 +5°C° 0 mm 3 mps 766 mmHg 93%
    07:00 +5°C° 0.1 mm 4 mps 766 mmHg 93%
    08:00 +6°C° 0.1 mm 5 mps 765 mmHg 93%
    09:00 +7°C° 0.1 mm 6 mps 765 mmHg 93%
    10:00 +7°C° 0.9 mm 6 mps 765 mmHg 93%
    11:00 +8°C° 0.9 mm 7 mps 765 mmHg 94%
    12:00 +9°C° 0.9 mm 8 mps 764 mmHg 94%
    13:00 +9°C° 0.6 mm 8 mps 764 mmHg 95%
    14:00 +9°C° 0.6 mm 7 mps 764 mmHg 95%
    15:00 +10°C° 0.6 mm 7 mps 763 mmHg 96%
    16:00 +10°C° 0 mm 7 mps 764 mmHg 96%
    17:00 +10°C° 0 mm 6 mps 764 mmHg 96%
    18:00 +10°C° 0 mm 6 mps 764 mmHg 96%
    19:00 +10°C° 0 mm 5 mps 765 mmHg 95%
    20:00 +9°C° 0 mm 5 mps 765 mmHg 94%
    21:00 +9°C° 0 mm 5 mps 766 mmHg 93%
    22:00 +8°C° 0 mm 5 mps 766 mmHg 92%
    23:00 +7°C° 0 mm 4 mps 767 mmHg 91%

    Tomorrow, 18 December, Monday

    Time Temperature Precipitation Wind Pressure Humidity
    00:00 +7°C° 0 mm 4 mps 767 mmHg 91%
    01:00 +7°C° 0 mm 3 mps 768 mmHg 90%
    02:00 +7°C° 0 mm 3 mps 768 mmHg 90%
    03:00 +6°C° 0 mm 2 mps 768 mmHg 90%
    04:00 +6°C° 0 mm 2 mps 769 mmHg 90%
    05:00 +6°C° 0 mm 2 mps 769 mmHg 90%
    06:00 +6°C° 0 mm 1 mps 769 mmHg 90%
    07:00 +6°C° 0 mm 1 mps 770 mmHg 89%
    08:00 +6°C° 0 mm 1 mps 770 mmHg 89%
    09:00 +6°C° 0 mm 1 mps 771 mmHg 89%
    10:00 +7°C° 0 mm 1 mps 771 mmHg 85%
    11:00 +8°C° 0 mm 1 mps 771 mmHg 82%
    12:00 +9°C° 0 mm 1 mps 771 mmHg 79%
    13:00 +9°C° 0 mm 1 mps 771 mmHg 81%
    14:00 +9°C° 0 mm 1 mps 771 mmHg 83%
    15:00 +9°C° 0 mm 1 mps 771 mmHg 85%
    16:00 +8°C° 0 mm 1 mps 772 mmHg 86%
    17:00 +7°C° 0 mm 1 mps 772 mmHg 88%
    18:00 +6°C° 0 mm 1 mps 772 mmHg 89%
    19:00 +5°C° 0 mm 2 mps 773 mmHg 89%
    20:00 +5°C° 0 mm 2 mps 773 mmHg 89%
    21:00 +5°C° 0 mm 2 mps 773 mmHg 89%
    22:00 +5°C° 0 mm 2 mps 773 mmHg 90%
    23:00 +4°C° 0 mm 3 mps 773 mmHg 90%

    Day after tomorrow, 19 December, Tuesday

    Time Temperature Precipitation Wind Pressure Humidity
    00:00 +4°C° 0 mm 3 mps 773 mmHg 90%
    01:00 +4°C° 0 mm 3 mps 773 mmHg 90%
    02:00 +4°C° 0 mm 3 mps 773 mmHg 90%
    03:00 +4°C° 0 mm 3 mps 773 mmHg 90%
    04:00 +4°C° 0 mm 3 mps 773 mmHg 90%
    05:00 +4°C° 0 mm 3 mps 773 mmHg 91%
    06:00 +5°C° 0 mm 3 mps 773 mmHg 91%
    07:00 +5°C° 0 mm 3 mps 774 mmHg 91%
    08:00 +5°C° 0 mm 3 mps 774 mmHg 91%
    09:00 +5°C° 0 mm 3 mps 774 mmHg 92%
    10:00 +7°C° 0 mm 4 mps 774 mmHg 90%
    11:00 +8°C° 0 mm 4 mps 774 mmHg 88%
    12:00 +10°C° 0 mm 4 mps 774 mmHg 87%
    13:00 +10°C° 0 mm 4 mps 774 mmHg 88%
    14:00 +10°C° 0 mm 4 mps 773 mmHg 90%
    15:00 +10°C° 0 mm 4 mps 773 mmHg 92%
    16:00 +10°C° 0.1 mm 4 mps 773 mmHg 93%
    17:00 +10°C° 0.1 mm 4 mps 773 mmHg 95%
    18:00 +10°C° 0.1 mm 4 mps 773 mmHg 96%
    19:00 +10°C° 0.1 mm 4 mps 774 mmHg 97%
    20:00 +11°C° 0.1 mm 4 mps 774 mmHg 97%
    21:00 +11°C° 0.1 mm 4 mps 774 mmHg 97%
    22:00 +10°C° 0 mm 5 mps 774 mmHg 97%
    23:00 +10°C° 0 mm 5 mps 774 mmHg 97%

    20 December, Wednesday

    Time Temperature Precipitation Wind Pressure Humidity
    00:00 +10°C° 0 mm 5 mps 774 mmHg 97%
    01:00 +11°C° 0 mm 4 mps 774 mmHg 97%
    02:00 +11°C° 0 mm 4 mps 774 mmHg 96%
    03:00 +11°C° 0 mm 4 mps 773 mmHg 96%
    04:00 +11°C° 0 mm 4 mps 773 mmHg 96%
    05:00 +11°C° 0 mm 4 mps 773 mmHg 96%
    06:00 +11°C° 0 mm 4 mps 773 mmHg 96%
    07:00 +11°C° 0 mm 4 mps 773 mmHg 96%
    08:00 +11°C° 0 mm 4 mps 773 mmHg 96%
    09:00 +11°C° 0 mm 4 mps 774 mmHg 96%
    10:00 +12°C° 0 mm 5 mps 774 mmHg 95%
    11:00 +12°C° 0 mm 5 mps 774 mmHg 93%
    12:00 +12°C° 0 mm 5 mps 774 mmHg 91%
    13:00 +12°C° 0 mm 5 mps 774 mmHg 91%
    14:00 +12°C° 0 mm 5 mps 773 mmHg 92%
    15:00 +12°C° 0 mm 5 mps 773 mmHg 92%
    16:00 +11°C° 0 mm 4 mps 773 mmHg 93%
    17:00 +11°C° 0 mm 4 mps 773 mmHg 95%
    18:00 +11°C° 0 mm 4 mps 773 mmHg 96%
    19:00 +10°C° 0 mm 5 mps 773 mmHg 96%
    20:00 +10°C° 0 mm 5 mps 774 mmHg 96%
    21:00 +10°C° 0 mm 5 mps 774 mmHg 96%
    22:00 +10°C° 0 mm 5 mps 774 mmHg 96%
    23:00 +10°C° 0 mm 6 mps 773 mmHg 95%

    21 December, Thursday

    Time Temperature Precipitation Wind Pressure Humidity
    00:00 +10°C° 0 mm 6 mps 773 mmHg 95%
    01:00 +10°C° 0 mm 6 mps 773 mmHg 95%
    02:00 +10°C° 0 mm 6 mps 773 mmHg 95%
    03:00 +10°C° 0 mm 6 mps 772 mmHg 94%
    04:00 +10°C° 0 mm 7 mps 772 mmHg 94%
    05:00 +10°C° 0 mm 7 mps 772 mmHg 94%
    06:00 +10°C° 0 mm 7 mps 772 mmHg 93%
    07:00 +10°C° 0.1 mm 7 mps 772 mmHg 93%
    08:00 +10°C° 0.1 mm 7 mps 772 mmHg 93%
    09:00 +10°C° 0.1 mm 8 mps 772 mmHg 93%
    10:00 +10°C° 0.1 mm 8 mps 772 mmHg 93%
    11:00 +11°C° 0.1 mm 8 mps 771 mmHg 93%
    12:00 +11°C° 0.1 mm 8 mps 771 mmHg 93%
    13:00 +11°C° 0.2 mm 8 mps 771 mmHg 92%
    14:00 +11°C° 0.2 mm 8 mps 771 mmHg 92%
    15:00 +10°C° 0.2 mm 8 mps 771 mmHg 91%
    16:00 +10°C° 0.8 mm 8 mps 771 mmHg 90%
    17:00 +9°C° 0.8 mm 7 mps 772 mmHg 90%
    18:00 +8°C° 0.8 mm 7 mps 773 mmHg 89%
    19:00 +8°C° 0.1 mm 7 mps 773 mmHg 89%
    20:00 +7°C° 0.1 mm 6 mps 774 mmHg 88%
    21:00 +5°C° 0.1 mm 6 mps 775 mmHg 88%
    22:00 +5°C° 0 mm 6 mps 776 mmHg 88%
    23:00 +6°C° 0 mm 5 mps 776 mmHg 88%

    22 December, Friday

    Time Temperature Precipitation Wind Pressure Humidity
    00:00 +6°C° 0 mm 5 mps 777 mmHg 88%
    01:00 +5°C° 0 mm 5 mps 778 mmHg 88%
    02:00 +5°C° 0 mm 4 mps 778 mmHg 88%
    03:00 +4°C° 0 mm 4 mps 779 mmHg 88%
    04:00 +4°C° 0 mm 4 mps 779 mmHg 87%
    05:00 +4°C° 0 mm 3 mps 779 mmHg 87%
    06:00 +3°C° 0 mm 3 mps 780 mmHg 86%
    07:00 +4°C° 0 mm 2 mps 780 mmHg 86%
    08:00 +4°C° 0 mm 2 mps 781 mmHg 85%
    09:00 +5°C° 0 mm 1 mps 781 mmHg 85%
    10:00 +7°C° 0 mm 1 mps 781 mmHg 82%
    11:00 +8°C° 0 mm 1 mps 781 mmHg 79%
    12:00 +9°C° 0 mm 1 mps 781 mmHg 77%
    13:00 +8°C° 0 mm 2 mps 781 mmHg 79%
    14:00 +7°C° 0 mm 2 mps 781 mmHg 82%
    15:00 +7°C° 0 mm 3 mps 781 mmHg 84%
    16:00 +7°C° 0 mm 3 mps 781 mmHg 86%
    17:00 +5°C° 0 mm 3 mps 781 mmHg 88%
    18:00 +4°C° 0 mm 3 mps 781 mmHg 90%
    19:00 +4°C° 0 mm 4 mps 781 mmHg 90%
    20:00 +4°C° 0 mm 4 mps 781 mmHg 91%
    21:00 +4°C° 0 mm 4 mps 781 mmHg 91%
    22:00 +4°C° 0 mm 4 mps 780 mmHg 92%
    23:00 +4°C° 0 mm 4 mps 780 mmHg 92%
    Show more